{"data":{"norad_id":61189,"epoch":"2026-09-22T21:55:59.865312Z","epoch_age_seconds":86055,"freshness":"FRESH","line1":"1 61189U 24169A   26265.91388733  .00002466  00000+0  15808-3 0  9992","line2":"2 61189  97.5551 353.9602 0004094  80.4537 279.7155 15.09443469110565","mean_motion":15.09443469,"eccentricity":0.0004094,"inclination_deg":97.5551,"raan_deg":353.9602,"arg_perigee_deg":80.4537,"mean_anomaly_deg":279.7155,"bstar":0.00015808,"rev_number":11056,"period_min":95.399399154312,"perigee_km":535.06801490164,"apogee_km":540.7308655389,"semimajor_km":6916.0364402203,"source":"CELESTRAK","updated_at":"2026-09-23T09:00:20.812071Z"}}